Theta_e
309 310 311 311 311 312 311 309 309 312 315 317 318 318 318 318 317 316 317 319 320 320 320 320 320 319 319 318 317 318 318 318 317 317 317 317 317 316 316 316 314 312 312 310 312 313 312 311 311 311 311 312 312 313 315 315 314 315 316 318 319 319 320 321 319 319 319 319 319 319 317 317 318 317 316 315 315 315 315 315 316 316 315 316 317 317 316 315
306 308 310 311 311 312 312 310 309 310 313 315 316 316 316 315 315 315 317 320 321 321 321 320 320 320 319 318 318 319 319 317 317 317 317 316 315 312 311 314 313 312 310 310 312 313 312 311 311 312 312 313 313 313 315 315 314 315 316 318 318 318 319 319 318 318 318 318 319 319 318 317 318 318 317 316 317 316 316 316 316 317 317 317 317 317 316 316
306 306 308 310 310 311 311 310 309 309 310 313 314 315 316 315 314 314 316 319 321 321 320 320 320 320 320 319 319 319 318 317 318 317 317 315 313 310 309 311 311 310 308 310 313 313 312 311 311 311 311 313 313 314 315 315 314 314 316 318 317 318 318 318 318 318 318 317 318 318 318 317 318 318 317 317 317 317 317 317 317 317 318 318 317 317 317 316
311 309 308 309 309 310 310 310 309 308 309 311 312 313 315 316 315 314 316 318 320 320 320 319 320 321 321 320 320 318 316 317 318 315 314 313 311 310 308 309 309 308 307 310 312 312 311 311 310 310 311 312 313 314 314 315 315 315 315 317 318 317 318 318 318 318 317 317 318 318 317 317 317 317 317 317 317 317 317 317 317 317 318 319 319 318 318 317
317 315 313 311 310 310 310 310 310 309 308 309 311 312 314 315 315 315 316 318 320 320 319 318 318 320 320 320 319 317 315 319 319 314 313 311 310 310 309 309 308 308 307 308 311 310 310 310 310 310 310 311 312 313 314 314 315 315 314 315 316 316 317 317 317 317 317 317 317 317 317 317 317 317 317 317 317 317 317 317 317 317 318 318 318 318 317 316
318 318 318 316 314 313 313 312 311 310 308 308 309 311 313 315 316 316 316 318 319 319 318 316 317 319 320 319 319 316 315 319 319 316 313 311 311 310 310 310 309 309 309 309 310 310 310 309 309 309 310 310 311 312 313 314 314 315 314 314 315 315 315 315 316 316 317 317 317 317 317 316 316 316 316 316 316 316 316 316 317 317 317 317 317 317 316 315
318 318 318 318 317 317 316 315 313 312 310 308 308 310 311 312 315 316 316 318 318 318 316 315 317 318 319 319 319 317 316 318 318 317 314 312 312 311 311 311 311 310 309 309 309 310 310 310 309 309 310 310 311 311 312 313 314 314 314 314 315 315 315 315 315 315 315 316 315 316 316 315 315 315 315 315 315 316 316 316 316 316 316 316 316 315 314 314
317 317 317 317 318 318 318 317 316 315 312 309 308 309 309 310 313 315 316 317 317 316 316 316 317 318 317 318 318 317 317 318 317 317 315 314 315 314 314 312 312 311 309 308 309 309 310 310 310 309 310 310 311 311 311 312 313 314 314 314 314 313 314 315 315 315 315 315 315 315 314 314 315 315 314 314 314 314 315 315 314 314 314 314 314 314 314 313
316 317 317 317 317 317 318 318 318 316 313 309 308 308 307 308 310 312 315 316 316 316 316 316 318 318 317 316 316 316 318 318 318 317 316 315 316 317 316 313 312 311 309 308 309 309 310 310 310 309 310 310 310 310 311 312 313 314 313 313 313 313 313 314 315 315 315 315 314 314 313 313 314 313 313 313 313 313 313 313 313 313 313 313 314 314 314 314
316 316 316 316 317 317 318 318 318 317 313 310 309 308 307 307 308 310 313 314 315 315 315 317 318 318 316 315 315 317 318 318 317 317 317 315 315 317 316 313 311 310 309 309 309 309 309 310 310 310 310 310 311 311 312 313 312 312 313 313 312 313 313 314 314 315 315 314 314 314 313 313 313 312 312 312 312 312 313 313 313 313 314 314 314 314 314 314
314 311 311 312 314 316 317 318 318 317 315 312 310 309 309 310 310 311 312 313 314 314 314 317 317 316 314 314 315 317 318 318 317 315 315 315 315 317 317 314 311 310 309 310 310 308 308 310 310 310 311 311 311 312 312 312 312 312 312 311 311 312 313 312 313 314 314 313 313 313 312 312 312 312 311 311 312 312 312 313 313 313 313 313 313 313 313 313
312 309 307 308 309 313 316 317 318 318 316 315 312 311 311 312 313 313 313 313 313 314 314 314 315 314 312 313 315 316 317 317 315 312 312 314 317 317 316 313 311 310 310 310 310 308 307 308 310 311 312 311 311 312 311 310 311 312 311 310 310 311 311 312 312 312 313 313 312 311 310 310 311 311 311 312 312 312 312 313 313 313 313 313 313 312 312 312
312 309 307 306 306 309 313 316 318 318 317 316 315 314 314 315 315 314 314 314 313 314 313 311 312 310 310 314 316 316 315 315 312 308 310 315 317 317 315 312 309 308 310 310 310 308 307 306 308 310 311 311 312 312 310 309 310 311 310 310 311 311 311 312 312 312 312 312 310 309 309 310 312 312 312 313 313 313 313 313 313 313 313 313 312 312 312 312
308 307 305 304 304 306 310 315 317 318 318 317 317 317 317 317 316 316 315 315 315 314 310 309 308 306 309 314 315 314 313 311 309 308 312 316 317 317 314 310 309 308 308 309 308 307 307 306 306 307 309 310 311 311 310 309 309 309 310 311 311 310 311 312 311 310 310 310 309 309 309 310 311 312 312 313 314 313 314 314 313 313 313 312 312 312 312 312
303 303 302 302 302 304 308 313 316 317 318 318 318 317 317 316 316 316 316 315 315 312 307 305 304 305 311 313 311 313 312 310 310 311 314 317 317 316 313 310 308 307 306 306 306 306 307 307 306 307 309 309 310 311 311 311 310 310 311 312 312 310 311 311 310 309 310 309 308 309 309 309 310 312 313 313 314 313 313 312 312 312 312 312 312 312 312 312
301 301 301 302 302 303 306 310 314 317 318 318 318 318 317 315 314 313 313 314 313 309 304 304 305 307 312 313 311 312 311 311 312 315 316 317 317 315 311 309 308 307 307 306 306 307 307 307 308 309 310 310 312 312 312 312 312 312 311 312 313 311 311 311 309 309 310 309 308 309 309 309 310 311 312 313 312 312 312 312 312 312 312 313 313 313 313 313
301 301 301 302 302 302 304 307 312 315 317 317 316 316 315 313 310 309 311 311 309 305 302 305 308 309 312 311 312 313 312 312 313 316 317 317 318 314 310 309 309 309 308 307 308 308 308 309 309 310 311 312 313 313 313 313 313 314 312 312 313 312 312 312 310 310 310 309 309 309 309 309 310 310 311 311 311 312 311 311 312 312 313 313 313 314 313 313
301 301 302 302 302 302 303 304 308 312 314 313 311 310 310 308 308 308 308 307 306 305 306 308 308 311 317 313 312 314 312 313 313 316 318 317 316 314 310 309 309 309 308 308 309 309 310 310 310 311 312 312 312 313 313 314 315 315 314 313 313 312 312 311 310 310 310 309 309 310 309 309 310 310 310 311 312 312 312 312 313 313 314 314 314 314 314 314
301 302 301 302 301 302 302 302 305 307 308 307 306 306 305 307 308 307 307 307 308 311 313 313 310 312 318 315 312 313 311 311 312 314 316 315 314 312 309 309 308 310 310 310 312 311 310 312 312 312 312 311 312 312 312 314 314 314 314 313 314 313 312 312 311 309 309 310 310 310 309 309 310 310 310 312 312 313 313 313 313 314 314 315 315 315 315 315
301 302 301 301 302 302 302 302 303 303 303 303 303 305 308 312 315 315 313 312 312 313 314 314 312 311 313 312 312 312 310 311 311 312 314 313 312 312 309 308 309 310 311 313 314 312 310 312 314 312 311 311 312 313 312 312 313 314 314 313 314 313 312 312 312 310 309 310 310 310 310 310 310 311 312 313 313 314 313 313 313 314 315 315 316 316 316 316
301 301 301 301 301 302 302 302 302 302 302 303 302 305 312 316 317 317 315 314 313 312 311 311 312 311 311 311 310 310 311 312 312 311 313 312 310 312 310 310 311 311 312 314 313 311 310 312 312 312 313 313 314 315 314 313 313 313 313 312 313 313 312 312 313 311 309 310 311 311 311 311 311 312 312 312 313 314 314 313 313 314 315 316 317 317 318 317
301 301 301 301 301 301 302 302 302 302 302 302 302 304 310 313 313 311 309 310 310 309 309 310 312 312 311 310 310 310 311 313 313 312 312 310 310 311 311 311 312 312 313 314 312 312 311 311 311 312 313 315 316 315 313 314 315 314 314 313 313 312 312 313 314 311 310 311 312 311 311 311 311 312 312 312 312 312 313 314 314 315 316 317 317 317 317 317
301 301 301 301 301 301 301 302 302 302 302 302 303 304 307 310 310 307 306 308 309 309 310 311 313 313 311 310 309 309 310 311 313 313 312 311 310 310 310 311 313 314 315 314 313 312 312 313 312 311 312 316 316 314 313 313 314 314 314 314 313 313 314 314 314 312 311 311 311 312 312 311 312 314 314 315 314 314 315 315 316 316 316 317 317 316 316 315
301 301 301 301 301 301 302 302 302 302 302 302 303 304 306 308 306 304 307 309 310 312 313 313 314 314 313 312 310 308 310 310 312 314 313 311 312 311 312 312 312 314 314 314 313 312 314 315 312 311 313 315 315 315 315 312 311 314 314 313 313 314 315 314 314 313 313 313 312 313 315 316 316 316 316 315 316 318 317 317 317 316 317 317 317 315 314 313
301 301 301 301 301 302 301 301 302 303 303 303 303 304 304 304 303 304 308 310 311 312 314 314 313 313 314 313 312 311 311 311 313 316 314 311 312 312 312 313 313 315 315 316 315 312 314 313 311 315 315 313 315 316 316 314 311 313 315 315 315 315 316 315 315 315 317 317 315 315 318 321 318 314 314 313 315 318 318 320 320 317 318 317 316 315 313 313
301 301 301 301 301 302 302 305 306 303 303 303 303 304 304 303 304 305 308 311 313 313 313 314 313 313 314 313 311 312 314 314 314 315 314 311 313 314 314 313 312 315 316 315 313 313 315 311 311 317 316 314 317 316 317 316 313 314 316 317 317 316 316 316 315 316 319 319 317 316 317 318 315 311 313 313 314 318 318 321 321 317 317 317 315 316 315 315
301 301 301 301 301 301 303 309 310 305 306 308 306 304 305 304 305 307 311 314 314 314 314 314 312 313 314 313 312 313 315 315 313 313 312 311 313 313 314 314 312 313 315 313 312 315 316 312 311 315 316 316 316 315 317 316 313 315 316 316 316 314 315 316 316 318 319 317 318 319 316 316 315 313 314 314 315 318 319 321 321 317 316 316 316 316 316 316
301 301 301 301 301 301 303 308 309 305 308 311 307 305 304 304 305 308 314 316 315 315 315 313 311 311 312 313 313 314 314 314 315 314 312 311 313 312 313 314 314 315 314 313 314 315 316 314 313 314 314 315 315 314 317 316 314 316 315 316 316 315 316 317 317 318 318 317 319 320 316 317 320 316 314 315 315 317 319 320 320 318 316 316 316 316 316 315
300 300 301 301 301 301 302 305 306 306 307 308 306 305 304 305 308 311 314 315 314 315 314 312 311 311 312 312 313 313 312 313 316 314 310 311 312 312 313 313 314 316 314 313 315 316 316 314 313 314 314 314 314 313 315 318 316 314 313 315 315 315 316 316 317 317 316 318 319 320 318 317 321 318 313 315 317 319 320 319 319 317 316 316 317 316 316 315
300 300 300 301 300 301 302 303 305 307 307 307 306 303 304 307 311 314 314 313 316 317 313 311 314 314 313 313 314 313 313 314 314 312 312 313 312 312 312 312 314 316 316 315 315 315 313 310 311 315 314 312 311 310 312 315 315 313 314 316 317 317 316 315 316 315 315 319 319 317 317 314 317 320 315 315 318 319 319 318 318 318 316 317 317 316 315 313
299 300 300 300 300 302 303 303 305 306 307 308 305 303 306 311 313 315 315 312 314 316 312 312 315 315 314 315 317 315 314 315 314 313 315 314 313 313 313 313 313 314 316 316 316 316 314 311 312 314 311 310 312 312 310 310 312 314 316 317 317 318 318 316 315 314 316 322 319 315 315 313 316 320 317 315 316 316 317 316 317 319 318 316 315 315 313 312
299 299 300 300 300 302 303 304 305 306 307 307 304 305 311 314 314 314 314 311 312 315 314 315 315 314 315 316 318 316 315 316 315 315 316 315 314 314 314 315 314 315 317 317 317 318 317 315 313 311 309 310 314 316 312 311 312 314 315 315 315 316 318 318 318 319 319 319 316 313 315 317 317 315 313 314 314 314 317 317 317 319 317 315 314 313 312 312
299 299 299 299 300 301 302 305 305 306 308 306 305 309 313 314 315 315 314 312 313 315 315 316 316 315 316 316 316 317 317 317 316 315 316 317 317 316 316 316 315 317 319 316 317 320 319 317 314 312 311 310 313 316 316 316 313 312 315 316 316 316 315 316 318 319 318 317 315 313 314 318 318 314 314 315 314 315 316 316 316 316 315 315 314 312 312 312
298 299 299 299 300 300 301 304 305 306 308 306 307 313 313 313 315 313 314 314 313 314 314 315 316 315 315 316 316 317 316 316 316 316 317 317 317 317 317 317 317 318 317 315 316 317 318 320 316 314 313 310 313 314 314 316 314 312 315 316 317 317 316 317 318 318 318 318 316 312 315 320 320 317 317 317 315 315 314 314 315 315 314 314 313 312 312 312
298 299 299 299 300 300 300 303 304 307 308 307 310 314 312 313 315 312 314 315 313 315 314 313 315 315 315 315 316 316 316 317 317 316 316 316 316 317 316 316 318 317 316 316 316 314 315 321 316 310 310 309 311 312 310 314 315 314 315 317 318 318 317 318 317 315 316 317 316 315 318 321 319 317 317 316 316 314 313 314 314 314 314 312 312 313 312 312
299 299 299 299 299 300 300 302 304 307 308 309 312 313 311 312 314 313 314 314 314 315 315 315 316 316 316 316 316 315 315 316 317 315 315 315 316 316 315 316 318 318 315 315 316 315 316 320 313 308 309 308 308 309 309 312 315 315 316 317 317 315 315 316 316 314 314 317 319 319 319 318 316 317 318 315 315 315 314 314 313 314 313 312 313 313 312 312
298 299 299 300 299 300 300 301 304 306 308 311 312 313 312 313 315 315 313 314 315 315 315 315 316 316 316 316 317 317 314 313 314 315 315 316 317 317 316 317 319 318 316 313 315 317 316 318 313 309 311 308 305 306 308 309 311 314 315 315 315 313 312 314 315 316 317 319 320 318 318 318 316 318 319 316 316 316 315 315 314 315 314 313 313 313 312 312
298 298 299 300 300 299 299 301 304 307 309 312 312 313 314 313 314 314 313 314 315 315 316 315 315 316 315 314 317 316 313 312 314 314 314 316 318 318 317 317 318 318 316 314 315 316 314 317 314 309 310 309 305 308 313 310 308 311 312 311 312 314 315 315 314 316 317 318 319 320 318 316 317 317 317 317 317 316 315 315 315 317 316 314 314 314 313 312
298 298 299 301 300 300 299 300 304 307 310 311 312 313 314 313 313 313 312 313 313 315 316 315 314 314 312 314 319 317 313 313 315 313 313 316 317 318 317 317 318 316 314 314 315 315 314 315 316 310 308 310 308 310 316 314 309 309 310 310 310 312 315 316 315 316 317 317 319 322 319 316 319 319 316 317 317 315 316 315 316 318 315 314 315 315 314 312
300 303 304 303 302 300 299 301 305 309 310 311 311 311 311 311 312 311 310 312 314 314 315 316 316 313 313 314 317 317 315 315 316 314 313 315 315 317 317 316 317 314 312 314 315 315 314 313 316 311 307 310 312 313 315 315 312 310 310 312 311 311 312 314 315 316 316 317 317 318 318 317 318 318 317 317 315 315 317 317 319 318 314 314 316 316 315 313
301 305 305 304 303 300 300 304 308 309 310 310 311 311 310 310 313 312 308 309 314 315 313 316 317 315 315 314 313 315 316 315 316 315 314 315 314 316 317 314 315 313 312 314 315 315 314 312 314 313 310 313 315 313 311 312 313 311 311 312 313 313 314 315 316 315 314 316 317 317 318 317 316 316 317 315 316 317 317 319 320 317 314 314 315 315 314 312
302 305 305 304 302 300 302 307 309 309 310 310 310 311 310 309 312 312 307 307 310 312 311 312 314 315 315 314 314 316 315 314 315 314 314 315 314 315 316 313 311 311 312 315 315 313 312 312 314 315 315 314 311 308 307 308 311 311 311 313 313 313 315 317 318 318 316 315 314 316 319 318 315 316 316 315 316 315 315 317 317 316 314 315 315 315 314 312
303 305 305 304 301 301 304 307 308 308 310 310 309 310 310 308 310 311 309 307 307 310 311 310 311 312 313 313 313 315 314 313 316 316 314 316 316 313 312 311 311 311 313 316 315 312 311 313 315 315 316 312 307 306 305 305 308 312 313 314 314 314 314 315 316 316 317 317 315 317 318 317 315 317 316 316 316 314 314 314 314 314 314 315 315 314 313 312
303 304 305 303 301 303 306 307 307 308 309 309 308 309 309 309 310 310 310 309 308 310 312 311 311 312 313 313 312 313 314 312 314 316 315 317 316 309 307 311 312 313 315 316 315 313 313 315 315 315 316 315 312 311 311 308 308 312 314 313 313 314 315 316 315 313 316 320 321 319 317 315 315 318 318 317 318 317 316 314 313 313 313 313 314 313 313 313
302 304 305 303 302 304 307 307 307 307 308 308 309 308 308 308 308 308 309 309 308 310 311 312 312 313 313 313 311 311 313 311 312 315 315 317 315 307 305 308 310 312 312 309 309 311 314 315 315 315 315 316 316 318 318 315 310 310 313 313 313 315 316 317 317 315 317 320 319 317 315 314 314 316 316 316 316 316 314 311 311 312 313 313 313 313 313 313
302 305 305 304 303 304 305 306 307 307 308 308 308 308 307 307 307 307 308 309 308 309 311 311 312 312 313 313 310 309 310 310 310 312 313 316 316 310 305 304 307 309 307 305 306 309 313 314 315 316 315 314 316 317 317 316 313 313 314 314 314 314 314 315 316 316 316 316 315 315 315 313 313 313 313 313 313 314 313 312 311 312 312 313 313 313 313 312
302 304 305 304 304 304 304 305 305 306 307 307 307 307 307 307 307 307 307 308 309 309 310 310 311 312 312 311 310 310 310 308 308 310 311 312 314 311 305 304 306 306 305 306 307 309 313 314 314 315 315 314 316 316 315 316 316 316 317 316 315 314 314 314 315 314 314 314 314 314 315 315 313 312 312 312 312 312 313 312 311 311 312 312 312 312 312 311
301 303 304 305 305 305 304 305 305 306 307 307 307 309 308 307 307 307 308 307 307 308 310 310 310 311 312 311 310 310 310 309 308 309 310 310 311 312 310 307 306 304 305 308 308 308 312 314 314 314 314 314 315 315 315 315 314 314 317 318 317 315 314 314 313 313 313 314 313 314 316 316 314 313 313 312 312 312 312 312 311 311 312 311 311 312 311 311
301 301 302 303 304 305 305 304 304 305 306 307 307 307 308 308 307 307 308 307 306 307 309 310 310 310 310 311 311 311 310 309 310 310 309 309 310 311 311 311 307 303 304 308 308 307 310 313 313 312 312 313 314 314 314 314 314 313 314 316 317 316 315 313 313 312 313 313 312 313 315 314 313 313 313 312 312 312 311 311 311 311 311 311 311 311 311 311
302 301 302 303 303 303 304 305 305 305 305 306 306 306 306 307 307 307 307 307 307 308 308 308 309 309 310 310 310 310 310 310 311 312 310 309 310 310 310 312 313 306 304 307 309 307 309 313 313 311 311 312 312 313 314 314 313 312 312 314 315 316 314 313 312 312 312 312 312 312 313 312 311 312 312 311 311 311 311 310 310 310 311 310 311 311 311 311
303 302 302 302 303 303 304 305 305 305 305 305 305 306 306 306 307 307 307 307 306 308 307 307 309 309 309 310 310 310 310 310 310 311 310 309 309 310 309 311 314 311 306 307 309 308 308 310 311 310 311 311 310 311 311 312 312 310 310 312 314 313 312 312 311 312 312 312 312 312 312 311 311 311 311 311 311 311 311 310 309 310 311 311 311 311 311 311
303 302 301 301 302 303 303 305 306 306 306 305 305 306 306 306 307 307 307 306 305 306 306 307 308 308 308 310 310 309 309 309 309 309 310 310 308 308 308 308 310 312 308 307 308 308 308 309 311 311 311 310 309 308 307 308 309 308 308 309 311 311 310 310 311 311 311 311 311 311 311 310 310 310 310 310 311 311 311 309 309 310 311 311 311 311 310 310
Wind_Speed
11 11 11 11 11 10 9 8 6 5 6 7 7 7 8 8 10 11 10 11 12 13 13 14 15 16 14 14 14 13 15 16 19 20 16 14 13 15 18 18 17 14 12 9 7 9 9 6 7 8 9 10 11 12 12 12 12 10 6 5 6 6 7 6 6 7 6 7 7 4 2 2 4 5 6 6 9 13 14 16 16 16 19 24 23 22 22 22
11 11 12 12 12 11 11 9 7 6 7 9 9 9 9 9 10 11 10 10 11 12 12 13 14 16 15 16 16 16 16 17 21 19 12 12 11 11 12 15 17 16 12 9 10 9 9 8 8 9 10 10 11 12 9 10 12 9 4 5 8 6 6 6 7 9 9 10 11 11 9 8 8 7 6 7 9 11 12 13 16 19 22 24 25 24 25 26
12 11 12 12 12 12 12 11 9 8 8 10 11 11 11 11 12 12 11 10 11 12 13 14 14 15 15 17 17 16 16 19 18 10 6 10 10 10 8 11 15 14 11 9 9 9 10 9 7 8 11 10 11 11 9 9 10 10 7 5 7 7 8 9 9 11 13 14 13 14 16 15 13 12 11 10 12 12 11 11 13 20 23 23 25 25 27 28
13 12 12 12 13 13 13 12 11 10 10 11 11 12 12 12 13 12 12 12 12 13 13 15 15 14 14 16 16 13 14 15 9 2 5 8 7 9 6 4 9 10 10 11 9 9 10 9 7 9 10 10 11 11 8 9 9 9 9 6 7 8 9 11 13 15 17 15 14 15 15 14 16 18 17 13 12 11 11 15 18 23 24 22 22 19 20 25
14 14 13 13 14 14 14 13 13 11 11 12 12 12 13 13 13 13 12 13 14 13 14 16 16 14 13 14 12 11 11 7 2 3 8 8 5 7 7 2 3 5 8 11 11 10 9 8 8 10 10 8 9 10 8 12 11 6 8 11 12 11 8 9 12 14 14 12 11 12 11 13 17 19 19 16 13 10 13 20 23 24 24 22 23 21 18 21
15 15 14 15 15 15 15 14 14 13 12 13 13 13 14 14 14 13 13 14 14 15 16 17 16 14 12 12 11 10 7 3 4 7 6 5 4 5 5 4 2 2 5 9 10 9 9 9 10 11 10 7 8 7 8 15 14 6 7 13 14 12 10 12 14 14 12 10 10 11 13 17 17 17 20 20 20 20 24 27 26 26 26 25 28 28 27 27
17 16 16 16 16 16 15 15 15 14 13 13 13 14 14 15 15 14 14 15 16 16 17 18 16 15 13 12 12 10 8 9 10 8 5 5 5 5 5 5 5 3 3 7 8 7 9 10 12 13 9 7 7 8 9 14 13 8 7 9 12 14 15 17 18 18 14 11 14 16 17 18 16 17 20 23 26 29 33 33 30 29 29 29 30 31 33 34
17 18 17 17 17 17 16 15 15 15 14 13 14 14 15 16 16 16 15 16 17 18 18 18 16 15 14 13 12 9 11 13 11 7 6 6 6 8 9 9 9 5 3 5 7 8 10 13 15 14 8 6 7 7 10 11 8 8 9 9 12 16 18 18 17 18 16 16 18 17 17 20 22 21 22 28 33 37 38 35 33 32 32 32 32 34 35 35
17 18 18 19 19 18 17 16 15 15 14 14 14 15 15 17 17 16 16 16 18 18 19 18 16 16 15 14 11 7 10 11 9 9 10 9 9 10 10 10 10 6 4 5 7 9 11 13 15 14 8 7 8 8 9 7 4 6 12 13 12 15 18 17 16 18 19 19 16 13 16 21 23 21 22 32 38 39 35 32 32 30 30 30 30 33 34 32
17 18 19 19 19 19 18 17 15 15 15 15 14 14 15 17 18 17 17 17 18 19 19 17 17 16 16 15 8 4 9 10 9 10 11 12 12 10 10 9 9 8 5 6 8 10 13 11 10 11 9 8 6 7 9 8 4 5 9 11 12 14 17 17 17 17 17 17 16 14 14 19 22 15 14 27 35 31 24 24 26 22 22 25 26 28 28 28
17 18 19 19 19 19 18 17 17 16 16 15 14 14 15 16 17 17 17 17 18 19 19 17 17 16 16 15 7 7 12 13 12 12 11 11 10 8 10 11 10 9 7 8 9 9 12 12 9 7 6 6 5 6 6 6 7 10 9 9 11 13 17 18 17 17 14 12 16 15 12 17 19 12 18 34 40 30 21 21 22 19 20 22 23 25 25 26
17 18 19 19 19 19 18 18 18 17 17 16 15 15 15 16 16 17 17 16 18 19 18 17 17 16 16 15 14 12 14 14 12 13 11 8 7 7 11 12 10 8 8 10 10 8 9 13 12 7 5 4 5 4 4 6 8 9 7 6 9 11 14 17 17 19 15 8 9 5 8 15 13 15 30 38 38 31 23 23 23 21 22 22 24 25 25 26
17 18 19 20 20 19 18 18 18 18 17 16 16 15 15 15 16 17 16 16 18 18 18 17 16 16 14 13 17 15 11 12 11 12 11 6 6 9 12 11 8 8 8 9 9 8 8 11 14 11 7 3 3 3 6 8 6 5 5 4 7 7 8 15 17 17 13 8 7 4 4 11 6 14 29 29 27 25 19 21 22 21 21 22 23 24 25 26
18 19 19 19 20 20 18 17 18 18 18 17 16 16 15 15 16 17 16 16 18 18 17 17 15 14 11 13 17 15 11 12 12 11 9 5 6 11 12 10 8 8 8 9 8 7 7 9 13 12 9 5 5 7 8 5 3 2 5 4 4 4 4 7 6 10 8 6 9 6 4 9 6 13 23 20 16 15 12 14 17 18 20 22 23 23 24 25
18 18 18 18 18 19 19 17 17 17 18 17 16 15 15 15 17 17 16 16 17 17 17 15 14 11 11 15 16 12 9 10 11 10 6 4 7 11 12 11 8 6 5 5 5 7 8 8 9 7 4 4 5 5 5 3 3 2 3 4 4 4 4 3 3 9 6 3 10 9 4 9 9 12 13 6 3 6 10 13 16 19 21 23 25 25 26 26
18 18 17 17 17 18 18 17 16 17 17 17 16 15 15 15 16 16 16 16 16 16 14 12 11 8 7 11 12 10 8 7 7 5 5 8 10 10 11 10 8 5 1 2 5 7 8 8 7 4 1 1 1 1 2 4 4 3 4 5 4 4 5 2 1 4 3 2 9 10 5 7 7 9 10 9 11 14 15 17 19 22 24 25 27 28 28 27
19 18 17 16 16 16 17 17 16 17 17 17 16 16 15 14 15 15 14 14 14 13 11 9 8 7 7 9 11 11 8 4 3 6 9 11 12 11 8 6 6 3 4 7 7 8 10 7 5 3 2 1 1 2 1 3 4 4 4 4 5 6 6 3 1 2 4 4 7 9 8 9 11 15 20 24 25 24 22 22 23 23 25 26 27 27 26 26
18 18 17 16 15 15 16 17 16 17 16 16 17 16 14 12 12 12 12 12 11 8 8 9 5 3 7 7 7 8 4 2 2 6 10 10 11 11 6 4 2 3 6 8 7 8 7 4 2 1 1 2 3 3 4 5 3 2 2 3 5 6 6 5 1 2 6 6 6 7 8 11 14 16 20 24 24 22 23 23 22 23 24 25 26 26 26 26
18 18 17 15 15 14 15 15 16 16 15 15 16 14 11 9 9 10 11 10 8 5 4 7 8 3 3 3 4 6 4 2 2 2 8 8 8 10 7 4 3 4 3 3 4 4 5 3 2 1 3 5 6 6 7 9 5 6 4 2 5 5 5 6 2 2 4 4 6 8 9 11 14 16 17 19 20 21 24 24 22 23 25 25 26 25 25 24
17 17 17 16 15 14 13 14 15 14 13 13 14 11 7 6 6 5 7 12 13 11 11 11 12 10 6 5 6 7 6 4 3 2 5 7 7 8 6 3 4 3 3 2 2 3 5 3 2 4 5 6 7 9 11 13 10 8 6 4 6 5 6 7 2 2 1 2 5 6 9 12 14 15 15 17 18 17 19 19 20 24 25 25 24 24 22 19
16 16 16 16 15 14 13 14 14 14 12 12 13 9 4 4 4 2 5 13 16 15 17 19 18 17 13 9 8 7 5 4 4 6 6 7 7 4 4 6 3 2 3 2 4 3 4 3 7 7 7 7 5 6 9 11 10 8 6 5 6 5 7 6 0 1 2 1 4 6 9 13 13 13 15 17 15 15 17 14 16 23 24 22 20 20 19 13
15 15 15 15 15 14 13 13 14 14 12 12 13 11 8 6 6 6 7 11 16 17 18 19 20 20 19 16 12 9 6 3 5 9 8 9 10 6 7 7 3 3 3 3 5 3 2 6 9 5 4 5 3 2 2 4 6 5 5 5 5 5 6 4 3 1 2 1 4 6 9 14 16 15 16 16 13 17 23 21 21 24 20 16 12 10 10 7
14 15 15 15 14 13 12 13 13 13 13 13 13 12 12 10 8 8 10 9 14 16 18 21 22 21 20 19 17 14 10 6 7 11 11 11 12 10 8 6 4 4 5 5 4 3 3 6 6 2 1 4 4 2 1 1 3 4 4 4 5 5 4 3 2 2 1 4 5 6 8 12 14 14 13 15 14 18 25 26 27 24 14 10 7 6 6 6
13 13 14 14 13 12 11 11 11 12 12 12 12 11 12 11 9 8 9 8 9 7 12 18 19 16 16 15 15 15 14 11 8 10 14 15 12 8 7 6 5 4 4 6 7 6 5 2 1 2 2 3 3 3 4 3 3 5 7 6 6 5 4 3 3 5 4 4 4 4 7 8 7 8 8 9 10 13 17 19 21 21 14 8 8 9 9 8
12 12 13 13 12 11 10 9 9 11 11 11 9 8 9 9 7 6 5 5 6 3 6 10 10 9 11 12 10 9 10 11 11 10 14 17 14 7 4 7 5 3 6 8 7 7 6 1 1 2 3 3 3 4 5 5 4 4 6 6 4 4 4 4 5 5 5 3 1 3 4 6 4 7 11 10 7 7 9 11 12 14 9 4 3 4 5 5
12 12 12 12 11 10 7 5 6 8 8 9 8 7 7 7 5 2 1 3 4 2 3 5 6 5 6 9 10 7 3 6 10 12 14 16 16 9 2 4 4 2 4 5 3 3 2 2 0 1 4 4 4 5 5 7 3 3 3 2 2 2 2 3 4 2 2 3 2 3 1 6 7 8 13 11 7 8 7 7 4 2 2 4 3 6 7 3
12 11 12 11 10 10 7 4 5 6 4 6 7 6 6 5 6 3 1 2 3 1 3 4 4 4 4 5 10 8 1 2 7 10 13 13 15 11 4 3 3 3 3 1 0 2 2 3 1 1 3 4 5 4 4 8 4 3 3 3 3 1 1 2 2 1 2 4 3 4 4 4 7 8 13 10 7 9 6 5 4 4 4 6 8 7 4 1
13 11 11 11 11 11 9 7 6 6 6 4 3 5 6 7 7 4 1 2 2 2 2 4 4 5 5 6 11 7 3 2 3 4 11 13 12 8 5 4 2 3 4 3 2 3 1 3 4 4 3 4 4 1 1 3 3 1 2 3 2 1 2 2 1 2 4 4 4 4 4 2 6 8 13 9 6 8 4 8 6 4 7 10 10 6 2 2
13 12 11 11 11 11 10 10 8 7 7 4 1 4 8 10 7 2 1 2 1 2 1 3 4 5 7 6 10 7 3 2 1 1 8 10 10 6 2 4 3 2 4 4 3 2 0 3 3 4 4 3 2 2 4 1 2 1 2 3 2 1 2 1 0 2 2 1 6 7 5 3 5 7 10 7 6 6 5 8 6 8 13 13 8 3 1 2
15 13 12 11 11 11 12 11 10 7 6 5 4 7 12 11 4 1 1 2 1 2 2 3 3 6 8 4 5 8 5 2 3 5 4 3 7 5 2 2 2 1 3 4 5 2 3 3 1 2 2 2 4 2 2 1 1 1 3 3 3 3 2 0 1 1 2 3 7 7 6 4 2 6 7 4 2 1 4 5 6 8 12 11 6 3 1 2
15 14 13 11 11 13 12 12 11 9 8 6 7 13 12 5 1 1 3 1 1 1 1 2 2 5 7 4 2 6 6 3 5 7 3 1 4 4 3 1 1 1 3 4 5 3 4 3 1 2 3 5 4 2 1 1 1 1 2 2 2 1 1 1 1 1 0 4 5 3 3 4 3 6 6 4 1 5 3 2 5 7 8 8 4 2 1 2
15 15 14 13 14 15 14 13 13 12 9 9 14 16 8 1 2 4 3 1 1 2 2 2 2 3 5 4 2 5 4 4 7 6 3 3 4 4 4 4 3 1 3 4 3 1 2 2 2 3 2 4 4 2 1 2 2 1 1 0 1 1 1 1 0 1 3 4 4 1 1 1 6 8 9 11 11 7 4 2 2 6 7 5 3 2 3 4
15 15 15 15 15 16 15 13 14 14 12 14 18 12 2 3 4 4 4 2 0 2 1 2 3 3 3 2 2 3 1 1 5 5 3 3 3 4 7 8 6 2 1 2 2 1 2 2 3 3 1 4 5 3 2 2 3 4 3 3 3 1 2 2 3 3 3 3 3 3 2 2 5 7 8 9 8 5 2 2 1 3 3 1 0 3 5 6
16 15 15 16 15 16 16 15 17 16 16 19 15 5 2 5 3 0 3 3 1 1 1 2 3 3 1 2 1 1 1 1 4 4 2 3 2 3 6 9 9 4 1 1 2 3 3 3 2 2 1 3 4 2 2 2 4 5 4 3 2 1 2 3 2 2 2 1 2 2 1 3 4 4 5 5 6 6 4 3 4 3 2 3 6 7 7 7
16 15 15 16 16 16 16 17 19 18 20 20 9 2 5 6 2 1 3 2 2 3 1 1 2 3 2 3 2 1 1 1 3 3 2 4 4 3 4 6 9 7 3 1 2 2 3 4 1 0 1 2 1 1 1 1 3 4 1 3 1 2 2 1 1 1 0 1 1 1 3 5 5 6 9 9 8 4 1 0 3 3 3 7 9 8 8 9
16 14 14 15 16 15 15 19 21 22 24 17 5 5 8 5 2 2 1 3 3 5 5 0 2 3 3 3 3 3 1 1 2 2 3 5 4 6 6 4 8 10 7 4 2 1 2 3 1 0 1 1 2 2 2 1 1 1 2 1 4 2 1 1 1 1 3 0 3 4 4 5 4 7 10 6 2 1 1 1 2 5 6 7 9 9 10 11
14 13 15 17 16 14 16 20 23 26 24 13 5 7 6 4 4 2 1 3 2 5 6 2 3 4 4 2 3 4 3 2 3 1 2 3 3 6 6 4 6 11 12 7 2 0 2 1 2 1 1 2 3 4 3 1 1 2 2 3 3 2 1 1 1 2 1 3 4 5 6 6 2 4 5 0 1 4 5 3 3 6 8 8 9 12 11 11
13 13 15 18 17 16 18 21 24 27 20 8 7 7 4 5 3 2 4 3 1 3 4 2 4 4 3 2 1 4 4 2 4 3 2 2 3 3 5 4 4 8 11 8 1 1 2 0 3 2 1 0 1 2 2 1 1 2 2 2 1 1 1 1 2 2 2 3 3 4 7 5 4 4 4 3 5 7 7 7 6 6 8 10 13 14 13 12
9 7 11 14 16 17 18 22 26 25 14 6 8 7 4 5 4 3 7 3 0 3 3 4 4 1 2 3 2 4 5 3 5 4 3 3 3 3 5 4 3 2 3 6 3 2 1 1 3 3 2 1 1 0 2 2 0 2 3 2 0 1 2 3 2 1 2 2 3 5 6 4 5 6 6 8 8 6 5 7 8 8 9 13 17 17 15 14
6 3 7 11 14 17 20 23 23 17 8 7 9 5 1 4 4 6 9 6 1 3 4 4 5 3 3 3 1 3 4 3 4 4 3 3 2 3 4 3 3 2 2 3 1 1 1 1 2 2 3 1 2 4 5 6 5 2 1 2 2 1 1 1 2 1 3 1 2 3 5 6 5 4 6 8 6 5 3 3 6 8 13 16 17 17 16 13
6 3 6 10 14 20 25 21 14 9 6 6 7 5 2 3 3 5 9 8 3 2 2 2 3 3 4 3 2 3 4 3 4 4 3 3 3 3 3 4 6 6 4 3 1 2 2 2 3 2 1 3 4 3 1 3 5 6 6 6 5 4 3 1 3 3 2 2 2 2 5 8 5 4 6 7 4 2 2 1 2 4 12 15 15 15 15 12
8 4 6 11 16 25 27 14 6 7 6 6 8 6 4 4 3 4 6 6 3 2 1 2 2 2 3 4 3 4 5 4 5 5 3 5 6 4 4 6 11 12 6 2 3 2 2 1 2 2 3 4 4 1 1 1 1 3 4 4 5 5 5 4 4 3 1 1 1 3 2 7 3 4 5 5 6 5 4 2 2 3 6 11 12 13 14 12
10 6 5 11 21 31 24 6 4 7 5 6 9 7 4 4 3 5 6 5 3 2 2 2 3 4 4 4 4 4 5 4 5 6 4 5 6 3 2 7 13 12 5 2 2 2 2 1 3 3 1 1 3 1 1 3 1 1 4 4 4 4 6 5 3 2 2 2 2 3 3 7 3 1 4 5 5 5 5 6 7 7 7 9 11 14 16 15
10 9 5 11 28 34 18 5 6 9 7 6 7 7 4 3 4 7 6 6 6 4 4 4 4 6 5 3 4 6 6 4 5 7 6 4 4 2 3 7 10 7 3 2 3 6 4 2 2 2 3 2 2 3 3 4 1 3 4 4 5 5 4 1 0 1 1 5 8 5 5 9 5 1 2 3 3 4 6 10 12 11 12 14 16 18 19 19
6 8 5 13 31 31 12 5 6 7 9 10 10 10 7 4 7 13 10 8 8 6 4 4 5 5 4 2 3 5 7 5 4 5 5 5 3 1 3 7 7 3 1 1 2 6 6 3 4 5 4 5 3 2 3 2 2 3 4 5 8 8 6 3 1 2 3 7 9 6 7 12 9 6 6 7 6 6 8 11 13 14 16 17 18 19 18 17
6 6 4 9 22 24 15 10 6 4 7 10 8 9 11 9 6 10 12 10 11 11 5 2 3 4 3 4 5 6 6 5 3 2 3 5 3 0 3 6 5 2 1 1 1 2 1 2 5 6 7 7 5 4 4 3 4 4 4 7 9 9 10 5 1 4 6 6 7 8 9 14 16 14 13 13 11 9 9 9 9 12 15 15 14 15 15 15
6 4 5 8 9 13 15 14 9 4 5 10 7 5 13 16 6 5 10 9 12 14 7 1 3 6 5 7 6 5 5 4 3 3 6 6 3 0 2 4 5 5 3 2 2 2 0 3 7 8 10 10 7 6 5 5 5 6 6 8 9 9 10 8 8 10 8 5 9 11 10 12 17 19 19 18 15 12 10 10 11 13 14 12 11 12 15 16
10 5 10 15 10 5 10 15 13 10 10 11 9 5 11 16 11 8 8 5 6 11 7 3 8 12 12 10 7 4 5 4 3 5 8 7 4 2 2 1 3 6 6 2 2 3 2 4 6 7 10 12 11 10 7 5 6 7 7 9 10 10 11 13 16 16 11 9 11 10 10 14 16 18 21 20 15 12 13 15 16 16 17 14 12 14 17 17
16 8 8 16 11 5 13 21 19 17 17 13 9 9 12 14 13 11 7 3 2 8 10 9 12 17 18 13 9 6 7 6 7 9 8 6 5 4 3 2 2 5 6 4 2 2 2 3 5 7 8 11 11 10 9 9 9 10 11 10 10 12 16 18 19 17 15 16 16 14 17 18 14 15 20 23 20 17 17 20 21 22 22 18 14 16 18 20
21 15 9 11 11 7 12 18 15 13 14 13 12 14 12 12 14 10 7 8 7 6 12 17 15 15 17 15 12 13 12 12 12 12 8 6 4 4 5 4 3 3 5 4 3 2 3 3 4 3 4 9 10 9 9 10 12 14 13 9 9 13 17 18 16 14 14 17 19 20 20 17 15 17 20 25 29 24 18 18 21 25 27 24 19 19 19 20
27 25 17 9 7 7 8 9 9 8 10 11 14 14 11 14 16 10 8 17 18 10 12 19 17 11 12 15 16 17 16 17 18 15 11 11 10 8 8 6 7 6 5 5 4 3 4 3 1 3 3 8 6 7 8 7 11 17 14 10 13 18 18 15 13 13 14 17 19 17 14 13 16 19 17 19 23 21 17 16 18 22 25 21 17 17 17 20
29 25 22 12 5 6 9 6 7 9 11 12 14 13 13 14 15 12 10 15 21 19 17 19 17 11 10 14 18 23 27 26 23 17 12 14 14 14 14 12 11 11 7 5 4 4 5 5 2 3 4 6 3 4 3 5 10 15 10 15 21 22 18 13 11 14 19 19 14 12 14 16 17 16 16 17 17 15 15 16 17 20 19 13 10 13 19 24
Wind_Direction
249 252 259 265 271 274 276 285 292 291 280 278 284 287 286 284 286 289 299 309 310 308 306 306 302 296 291 292 298 307 312 313 314 312 293 281 281 279 268 256 256 257 261 253 209 221 238 231 220 203 203 206 213 225 218 208 199 199 222 234 229 229 226 231 238 250 265 271 268 239 190 244 284 274 252 252 247 250 254 255 256 252 252 258 265 265 260 260
251 252 256 261 267 271 274 280 284 285 278 276 278 282 284 287 290 293 303 310 309 308 306 305 301 295 292 293 301 308 309 307 312 314 290 268 287 300 275 253 250 247 248 232 208 223 234 224 216 196 203 212 208 208 203 193 193 202 221 228 230 232 233 239 251 261 270 279 292 301 299 287 287 288 275 276 265 258 256 254 258 256 253 254 260 261 254 253
254 254 256 259 264 268 271 276 281 281 278 277 277 277 278 282 288 293 299 301 301 304 307 311 304 296 289 290 299 304 303 308 316 318 270 271 307 330 296 246 235 233 227 208 208 233 240 237 221 205 214 219 206 195 192 189 192 209 217 232 236 236 251 257 265 265 270 284 291 294 296 291 294 293 275 273 275 267 257 254 259 258 257 255 256 257 250 248
257 257 256 258 261 264 267 273 276 276 275 278 280 281 278 277 281 288 292 292 294 300 309 316 311 302 295 293 297 297 304 314 316 283 288 309 337 356 348 241 219 220 213 195 202 224 229 239 231 220 225 228 216 205 202 195 189 202 209 235 241 235 252 257 265 266 266 279 283 283 290 288 291 288 271 264 268 261 249 249 249 253 259 261 263 267 258 250
261 261 259 259 260 262 264 268 272 272 271 274 279 283 281 277 278 284 288 287 289 296 306 313 315 311 307 306 303 302 312 319 273 273 321 351 21 25 33 44 214 219 213 203 211 214 213 225 225 225 232 238 230 218 218 214 210 215 221 234 241 243 256 260 264 266 265 275 284 284 281 282 287 280 268 262 258 253 254 254 252 257 266 271 274 281 281 266
266 265 263 262 261 262 263 265 269 269 267 269 274 280 281 280 279 280 282 284 287 295 303 308 313 314 312 311 308 307 299 282 286 291 317 8 26 33 50 46 351 260 220 215 218 219 224 224 215 220 225 231 239 230 224 222 216 225 243 237 244 252 259 268 269 269 271 271 271 270 274 283 287 278 269 261 256 260 262 261 262 266 270 273 273 274 274 268
267 267 265 265 264 262 262 264 266 267 267 267 270 276 280 281 278 277 278 280 286 293 297 302 310 316 317 311 311 309 271 266 291 285 295 344 358 357 348 336 332 320 239 227 225 226 232 227 217 219 223 226 237 236 238 236 214 210 256 252 254 257 251 254 258 261 263 258 259 267 277 280 274 274 273 263 260 263 264 264 266 268 270 268 266 266 266 263
267 268 267 266 266 265 263 264 267 269 269 266 265 270 276 278 277 279 280 281 285 289 294 301 309 313 314 311 313 308 270 271 285 262 265 303 332 338 319 303 308 310 278 248 234 235 240 235 226 220 228 233 234 240 244 246 215 207 253 259 260 262 258 256 255 257 259 259 265 269 270 264 261 271 275 267 266 266 264 267 268 268 268 266 265 264 264 262
269 269 269 268 267 267 266 266 267 268 267 263 263 268 274 277 279 282 281 283 286 287 292 299 306 306 304 308 314 301 273 276 277 253 248 261 287 321 322 300 301 307 295 264 235 231 235 242 239 228 242 259 249 250 232 223 206 212 239 246 252 256 259 259 252 252 255 258 262 263 261 260 264 271 271 265 266 268 267 268 269 268 265 264 264 264 264 262
271 271 271 270 268 268 268 267 264 263 262 261 263 268 273 275 278 280 280 283 284 285 290 294 301 301 297 304 312 281 276 277 279 268 253 261 280 312 328 316 308 307 294 266 249 235 227 239 251 238 257 284 275 258 224 204 224 257 256 261 268 269 268 263 257 255 253 256 252 248 257 263 264 265 266 264 266 268 266 266 267 264 262 262 262 263 262 260
272 274 274 273 271 269 267 266 263 260 260 260 261 264 268 273 275 277 277 279 281 284 288 291 295 295 296 301 281 257 281 278 281 285 270 269 281 306 320 312 304 299 279 255 256 247 227 230 240 235 244 272 291 278 245 231 254 275 290 293 284 281 274 264 262 258 249 255 248 246 266 267 261 251 252 265 272 270 260 262 263 258 260 262 262 262 261 258
270 272 275 277 275 271 266 264 262 259 259 258 259 261 265 269 271 273 276 279 281 284 286 289 291 292 298 298 280 281 290 277 278 286 278 274 280 304 316 305 293 285 270 253 254 256 232 221 220 225 234 259 287 274 283 295 277 276 289 296 285 280 269 254 247 241 235 237 233 246 294 267 246 232 246 261 273 273 261 258 260 259 262 264 262 261 260 261
268 271 274 277 277 274 268 264 263 261 259 259 259 261 264 269 272 275 279 282 283 285 286 287 288 291 297 289 287 300 296 271 273 279 275 280 295 307 315 308 294 286 267 251 253 253 231 214 213 229 248 269 308 289 310 302 270 270 263 254 278 285 268 247 235 222 219 209 179 125 299 262 235 234 252 265 270 267 259 254 256 257 259 261 261 257 256 259
267 270 273 275 276 275 271 266 266 265 264 263 262 265 269 274 276 278 282 283 283 284 284 285 286 290 287 280 293 302 288 268 263 262 262 277 301 306 313 308 298 296 275 253 251 237 216 210 212 229 248 258 286 299 314 294 213 258 263 231 241 263 274 254 207 170 187 201 170 154 248 265 289 274 273 280 265 253 252 252 254 255 258 261 261 257 256 258
270 272 274 275 276 275 271 266 265 266 266 266 266 270 274 277 278 279 281 280 281 282 282 284 284 289 286 287 298 301 283 263 248 244 246 261 281 301 312 310 309 313 288 246 219 202 197 191 194 210 241 264 276 293 313 287 223 220 244 250 218 217 262 287 138 157 180 195 173 174 247 266 273 283 284 289 260 251 253 252 251 254 259 262 262 260 259 259
271 272 274 276 276 275 273 268 265 264 265 266 266 268 271 274 277 279 280 279 278 277 278 279 277 286 291 292 298 296 283 258 237 230 229 245 268 301 313 310 328 345 302 158 152 168 170 164 170 180 191 272 239 223 305 296 271 212 201 260 250 216 241 243 183 207 194 147 185 199 256 281 272 287 293 295 300 290 274 265 259 260 262 262 262 259 257 257
272 272 273 275 275 277 276 272 268 266 267 268 269 267 267 270 274 278 278 276 272 270 272 268 273 281 270 280 293 290 283 267 242 210 217 238 267 298 311 308 340 26 112 118 128 146 147 150 159 166 195 245 206 167 247 269 260 234 202 239 261 250 249 241 336 246 198 198 214 214 236 262 270 279 282 281 285 282 274 271 268 266 265 263 262 259 257 257
271 271 272 273 275 277 277 275 271 268 270 272 272 270 268 271 274 276 272 268 265 268 270 251 245 286 263 264 284 283 277 291 278 210 225 254 275 285 295 307 343 110 129 126 135 146 144 138 114 140 220 213 231 197 201 227 240 299 221 220 273 270 255 254 251 190 198 212 227 226 242 262 271 276 278 276 276 272 268 270 270 269 266 264 262 259 258 257
268 270 271 272 274 276 277 277 273 271 271 270 270 269 272 278 278 275 265 253 234 222 265 235 204 208 271 237 237 270 277 278 323 233 242 259 262 273 287 283 220 173 168 155 145 156 147 104 74 251 232 201 213 210 222 244 278 338 321 284 297 296 273 273 269 183 222 240 242 245 259 270 274 276 278 277 275 271 270 274 275 273 268 264 261 258 257 256
266 267 270 272 273 275 276 276 275 273 269 265 263 260 271 281 268 256 229 233 242 249 263 253 231 233 251 240 228 256 267 256 275 222 230 233 230 267 276 226 210 220 250 188 147 177 159 153 216 213 222 217 216 217 228 250 275 304 312 305 291 288 280 280 275 175 247 293 260 269 276 272 274 276 280 282 278 270 269 272 270 268 265 260 256 253 253 251
266 267 269 271 272 273 274 275 275 274 270 262 253 239 242 283 269 259 223 247 269 272 262 255 250 248 247 243 239 247 247 245 244 212 209 215 210 239 206 176 174 226 236 141 111 151 156 196 237 222 225 227 230 230 224 240 262 281 296 298 285 275 271 281 34 133 77 54 275 297 294 281 278 277 281 283 279 269 265 263 261 262 262 259 253 244 241 240
268 268 268 269 270 272 273 274 274 273 269 256 247 230 226 257 267 287 290 275 278 274 260 250 244 245 243 240 242 238 222 229 244 228 221 207 199 205 183 176 193 195 183 129 106 121 184 238 238 230 241 220 219 256 212 238 261 274 280 274 272 274 274 296 46 52 80 112 280 313 306 289 285 280 277 273 265 263 263 259 256 257 257 260 256 236 225 229
268 269 269 268 269 271 270 271 271 270 265 252 248 235 231 248 258 286 300 290 283 272 253 239 231 234 237 237 240 233 225 235 238 230 222 199 195 207 194 183 216 198 168 180 182 167 204 242 232 205 272 224 214 196 151 271 266 243 247 253 262 274 277 284 8 343 264 213 257 309 306 287 284 281 275 266 257 253 254 253 254 255 258 261 257 247 243 248
270 269 270 268 268 269 266 268 267 264 263 255 253 242 239 252 259 291 300 277 278 262 229 228 224 228 233 234 239 230 225 233 229 222 209 193 188 198 204 207 221 218 197 200 207 218 230 241 205 160 194 226 230 191 175 216 249 233 224 227 247 264 274 283 328 331 301 244 241 313 308 279 276 287 288 282 271 250 238 239 249 258 265 272 266 256 247 236
268 268 270 268 267 266 263 265 259 256 260 255 251 242 242 249 253 290 307 274 270 227 199 215 213 221 222 221 228 216 217 227 229 222 200 192 187 177 198 214 215 227 219 206 208 238 248 200 153 184 178 202 227 218 195 201 242 260 229 226 248 284 308 319 331 335 326 313 331 28 337 285 295 310 295 295 290 257 225 216 242 261 260 257 261 210 180 172
264 264 266 265 262 259 251 250 248 249 257 253 246 235 236 235 229 257 305 279 276 194 151 176 190 201 203 211 207 185 194 225 218 213 199 193 192 183 178 193 194 248 232 209 207 245 236 148 166 207 189 188 207 239 206 177 214 281 251 277 339 317 314 304 304 314 290 295 288 107 91 280 298 299 281 285 285 259 230 200 229 299 126 136 156 154 139 133
261 259 261 260 255 244 221 208 234 231 230 253 248 228 225 203 185 175 62 274 260 164 131 155 171 174 173 186 181 174 203 169 176 194 196 195 193 196 219 167 157 239 241 111 196 255 115 130 245 241 199 200 203 243 200 160 175 254 258 315 336 280 249 266 289 281 264 301 284 179 152 266 290 286 275 284 288 264 230 145 96 69 125 154 161 161 150 243
258 256 256 252 248 241 226 220 219 202 203 237 252 219 199 167 167 161 45 296 241 119 128 148 149 165 161 163 178 195 315 163 155 185 189 191 188 191 226 223 201 213 196 154 196 258 81 155 198 175 174 209 199 266 307 171 180 215 261 297 324 330 306 303 353 269 277 327 299 233 153 219 277 281 282 288 279 261 188 126 117 136 170 173 168 173 199 282
253 251 250 248 245 239 234 228 214 205 209 208 206 192 164 149 149 134 351 285 175 111 102 131 143 161 146 151 192 219 285 220 201 142 170 185 189 180 230 254 270 196 186 213 227 258 238 181 184 162 173 210 160 49 355 328 172 200 269 272 269 290 300 317 341 283 303 307 266 245 170 182 274 273 282 298 286 257 159 135 150 169 177 177 170 161 159 297
249 247 244 241 235 227 224 219 211 211 200 183 180 162 149 148 145 110 223 243 131 102 81 116 137 155 154 153 190 205 223 211 134 138 150 184 196 204 268 288 303 250 209 238 241 200 123 125 143 175 169 140 123 88 4 18 124 221 255 246 237 217 188 185 200 254 341 255 257 244 178 157 296 270 261 266 279 50 109 141 163 171 168 157 141 132 165 293
246 242 238 232 224 221 216 207 202 199 191 181 156 150 149 151 191 216 208 206 79 120 126 145 135 145 172 199 177 175 203 209 153 155 167 172 185 207 254 288 29 282 255 237 232 198 138 143 187 169 147 131 127 102 357 276 255 255 253 261 289 255 135 66 135 104 236 242 262 269 159 140 228 259 253 237 289 12 354 221 175 171 150 122 103 86 57 3
246 239 235 227 221 220 216 205 194 187 186 171 155 155 159 213 234 222 221 48 82 184 179 153 166 172 196 237 234 163 189 204 170 176 201 185 186 196 208 209 160 163 254 232 218 170 171 193 126 113 155 176 166 139 126 256 232 173 229 291 41 19 338 330 214 176 213 246 267 257 123 169 239 254 267 274 287 302 284 254 166 159 137 92 31 28 67 62
246 241 234 225 222 218 216 209 190 182 177 165 163 167 193 253 223 213 209 206 227 206 132 100 155 175 172 210 236 165 149 190 162 177 213 181 207 215 203 214 211 194 225 219 200 182 283 312 117 122 199 210 201 170 156 225 192 170 176 161 144 166 260 254 233 217 219 262 266 234 214 262 272 265 252 261 276 272 256 271 221 155 136 99 96 114 94 74
247 245 237 228 223 216 212 205 189 181 173 168 170 177 218 228 246 258 196 204 228 179 99 87 132 125 160 219 277 149 131 255 165 153 170 175 208 230 209 216 222 216 98 311 251 214 256 292 189 167 150 195 209 175 157 179 170 192 202 151 142 192 213 222 221 230 265 306 276 295 288 218 237 262 231 240 270 265 271 253 215 213 229 175 140 121 103 91
249 247 243 235 225 215 210 200 188 181 174 170 171 206 204 215 252 268 206 168 168 169 129 310 143 125 229 229 252 249 141 213 197 155 182 204 202 209 207 210 207 198 162 188 242 202 223 251 213 185 197 174 189 96 86 89 158 212 178 90 161 225 197 220 208 189 233 1 272 254 256 221 229 279 275 278 284 263 250 205 185 180 160 139 130 126 123 116
252 249 248 241 225 214 208 198 188 181 176 169 178 222 214 223 209 209 197 127 144 145 125 238 185 172 227 196 200 238 111 120 184 175 213 217 228 222 216 215 194 188 183 184 209 191 210 257 292 188 230 45 16 8 15 54 160 211 91 143 247 245 117 193 277 37 89 12 252 215 249 274 288 292 279 269 274 216 163 44 154 159 153 144 145 151 149 138
249 246 245 239 225 211 203 198 189 181 178 175 212 221 211 223 216 207 121 111 132 144 135 168 186 181 213 196 182 185 153 150 168 184 218 201 235 222 212 233 184 182 196 200 234 242 148 265 292 311 358 8 13 0 339 302 125 108 156 240 288 344 45 155 278 341 177 242 253 213 240 270 268 285 293 103 174 234 216 184 177 170 162 167 175 176 174 163
246 249 251 243 228 210 200 197 188 181 178 186 234 234 215 213 217 135 142 128 86 151 150 193 185 165 192 204 159 146 151 164 157 181 226 195 232 190 169 209 178 178 201 194 208 317 116 227 293 333 1 293 41 16 324 281 126 138 221 253 55 84 253 181 177 252 240 250 277 261 264 257 201 224 269 262 247 234 205 181 187 186 179 189 190 188 188 183
242 254 262 248 225 208 200 194 185 180 182 199 223 231 215 211 218 161 172 170 96 179 184 210 199 156 169 173 125 138 165 176 154 177 219 189 220 187 161 195 174 148 191 166 176 257 123 150 268 301 341 85 77 166 192 194 68 2 333 306 162 182 204 185 184 201 201 247 295 297 293 261 208 208 212 231 253 253 214 187 187 191 190 193 191 190 194 194
208 212 258 236 213 202 193 184 178 181 198 212 216 228 201 208 213 188 190 189 162 189 204 216 199 180 183 190 204 164 177 193 169 185 217 185 211 227 192 177 141 100 45 88 148 264 105 160 218 302 338 47 187 207 189 183 178 158 240 227 213 210 170 189 275 219 153 185 276 286 288 264 224 197 200 221 253 295 285 226 214 198 180 186 194 193 196 200
181 213 246 214 202 193 179 169 173 193 216 217 226 242 215 197 190 189 202 204 213 224 214 241 221 182 171 190 227 185 173 195 193 204 229 199 218 240 203 156 141 139 85 49 276 220 166 186 177 168 231 223 223 225 194 182 171 170 187 194 191 181 142 113 268 250 148 159 199 196 279 274 231 194 231 230 214 238 282 324 274 198 168 179 196 199 205 215
192 234 229 203 195 181 169 164 193 208 209 216 231 242 216 198 183 176 193 203 227 269 343 312 258 199 175 183 189 172 173 190 193 201 228 216 213 218 204 168 153 153 141 131 215 205 127 164 218 203 198 219 247 255 59 357 147 168 203 203 189 182 170 172 215 237 179 190 168 119 264 278 242 181 215 199 169 190 202 176 229 241 185 185 202 217 228 238
211 225 211 196 184 173 169 175 214 206 221 229 240 247 208 193 182 165 176 191 198 189 201 232 217 219 227 199 174 174 184 192 190 193 212 225 217 211 199 168 156 155 158 158 182 162 111 149 231 250 266 279 298 323 16 356 20 210 246 221 192 203 204 190 187 197 176 186 161 133 231 265 277 212 206 173 161 192 213 208 212 224 221 215 227 241 249 257
217 224 222 191 177 172 176 204 192 204 222 221 243 247 218 230 208 181 182 189 183 171 186 212 210 220 232 198 173 189 190 188 200 203 203 208 204 169 152 169 169 173 195 200 175 165 171 181 177 220 287 299 321 343 334 322 269 225 248 212 201 234 231 161 44 230 228 216 198 182 241 255 259 293 255 208 198 224 229 223 221 228 236 239 244 250 254 260
209 216 211 189 182 181 197 232 187 206 212 211 238 237 225 259 219 202 205 197 190 185 177 200 202 200 204 177 185 209 203 199 209 210 209 207 204 161 170 187 194 213 262 256 163 160 177 200 164 172 224 229 230 257 249 241 189 222 254 204 200 213 200 164 115 186 216 233 216 199 242 258 269 294 287 266 248 251 248 234 230 238 246 248 247 250 253 256
202 209 169 171 188 199 229 242 217 219 201 203 236 231 219 235 222 207 211 200 198 199 189 205 187 165 171 180 201 223 220 218 208 202 225 205 179 160 193 193 196 191 133 118 175 161 171 254 208 200 219 220 214 223 208 142 138 189 214 198 199 204 200 194 178 205 217 242 243 227 236 263 278 278 273 269 261 263 270 265 258 259 263 261 250 246 250 255
205 221 174 158 186 215 235 239 232 231 191 193 204 196 211 223 224 200 205 201 201 199 200 286 181 183 194 185 196 222 212 209 196 214 238 215 172 96 174 176 196 191 166 144 174 163 125 251 234 230 238 241 246 241 205 149 165 193 188 191 200 199 195 199 218 222 215 232 251 239 227 250 268 270 269 269 266 266 266 267 272 273 272 270 259 252 256 260
204 238 203 188 188 200 214 219 216 215 217 212 205 185 206 215 211 199 197 200 208 196 193 233 208 209 210 188 182 199 179 187 217 228 237 220 181 177 167 169 210 185 170 161 155 152 179 241 237 237 248 255 260 259 247 237 235 218 198 195 196 193 193 204 221 224 213 223 246 246 232 235 249 263 267 266 264 264 267 272 278 278 274 270 264 259 258 262
209 251 226 200 210 210 194 199 200 207 216 217 218 218 213 211 210 204 176 132 224 207 200 214 213 214 218 201 185 194 176 177 221 233 232 218 186 171 181 215 225 180 170 167 171 172 173 224 234 239 260 265 263 266 265 262 263 252 233 212 189 194 204 209 220 225 223 234 246 251 250 247 247 257 264 269 269 267 271 280 285 284 283 282 274 264 263 269
208 222 211 202 233 238 199 197 195 207 218 216 226 228 217 214 213 201 167 170 195 204 202 215 216 211 218 210 198 212 203 190 217 227 200 180 189 188 203 201 161 174 188 167 179 206 171 198 221 209 267 268 263 269 264 252 258 257 245 220 200 216 221 218 222 225 227 238 244 246 253 260 259 255 259 269 275 276 277 279 279 280 283 285 279 270 267 270
211 215 208 204 235 215 196 196 186 203 219 214 224 224 216 222 214 199 205 208 205 197 190 208 218 216 221 215 207 219 219 208 224 231 194 182 198 196 203 188 138 148 189 176 169 169 164 204 178 101 255 261 255 265 268 268 270 262 243 209 212 226 227 221 219 216 220 231 238 244 252 254 253 255 257 262 269 275 276 273 273 275 277 277 272 266 264 266
211 215 211 210 235 200 195 202 185 204 223 218 220 219 217 224 209 195 221 220 212 213 202 197 206 214 222 218 210 217 224 224 233 242 222 209 211 200 201 200 166 154 168 174 166 157 165 187 163 142 231 265 267 274 316 353 295 271 228 195 215 228 229 230 231 224 222 224 226 233 237 238 246 256 261 260 256 259 266 270 274 276 275 272 260 260 267 271